Home > Weather > Arlington > Past weeks

Flag for USA Past Weather in Arlington, Texas, USA — Yesterday and Last 2 Weeks

Now
80 °F

Scattered clouds.


Feels Like: 84 °F
Forecast: 79 / 94 °F
Wind: 7 mph from South

Location: Arlington Municipal Airport

Current Time: Jul 28, 2016 at 9:39:06 AM

Latest Report: Jul 28, 2016 at 8:53 AM


Visibility: 10 mi

Pressure: 29.98 "Hg

Humidity: 76%

Dew Point: 72 °F

Location of ArlingtonLocation

Past Weather in Arlington — Graph

°F

Arlington Temperature Yesterday

Maximum temperature yesterday: 95 °F (at 2:53 PM)
Minimum temperature yesterday: 78 °F (at 4:53 AM)
Average temperature yesterday: 85 °F

High & Low Weather Summary for the Past Weeks

 TemperatureHumidityPressure
High99 °F (Jul 22, 3:53 PM)91% (Jul 26, 5:53 AM)30.21 "Hg (Jul 26, 5:53 AM)
Low74 °F (Jul 22, 6:53 AM)31% (Jul 22, 3:53 PM)29.82 "Hg (Jul 23, 6:53 PM)
Average87 °F59%29.98 "Hg
* Reported Jul 13 8:10 AM — Jul 28 7:53 AM, Arlington, Weather by CustomWeather, © 2016

Note: Actual official high and low records may vary slightly from our data, if they occured in-between our weather recording intervals... More about our weather records

Advertising

Arlington Weather History for the Previous 24 Hours

Scroll right to see more
 ConditionsComfort  
Time TempWeatherWind HumidityBarometerVisibility
7:53 AM
Thu, Jul 28
78 °FPassing clouds.6 mph82%29.96 "Hg10 mi
6:53 AM78 °FClear.3 mph82%29.95 "Hg10 mi
5:53 AM78 °FClear.3 mph82%29.93 "Hg10 mi
4:53 AM77 °FClear.No wind85%29.92 "Hg10 mi
3:53 AM78 °FClear.5 mph82%29.91 "Hg10 mi
2:53 AM79 °FClear.8 mph82%29.90 "Hg10 mi
1:53 AM80 °FClear.6 mph76%29.90 "Hg10 mi
12:53 AM81 °FClear.3 mph74%29.91 "Hg10 mi
11:53 PM
Wed, Jul 27
81 °FClear.5 mph77%29.91 "Hg10 mi
10:53 PM84 °FWarm.5 mph67%29.92 "Hg10 mi
9:53 PM85 °FClear.6 mph63%29.90 "Hg10 mi
8:53 PM86 °FSunny.8 mph63%29.89 "Hg10 mi
7:53 PM86 °FSunny.6 mph61%29.85 "Hg10 mi
6:53 PM88 °FSunny.5 mph57%29.85 "Hg10 mi
5:53 PM87 °FSunny.No wind59%29.85 "Hg10 mi
4:53 PM87 °FThunderstorms. Scattered clouds.13 mph57%29.86 "Hg10 mi
3:53 PM94 °FPassing clouds.7 mph44%29.86 "Hg10 mi
2:53 PM95 °FPassing clouds.7 mph41%29.86 "Hg10 mi
1:53 PM94 °FSunny.No wind44%29.89 "Hg10 mi
12:53 PM92 °FBroken clouds.8 mph49%29.91 "Hg10 mi
11:53 AM92 °FBroken clouds.6 mph49%29.94 "Hg10 mi
10:53 AM89 °FSunny.No wind57%29.94 "Hg10 mi
9:53 AM85 °FSunny.7 mph68%29.93 "Hg10 mi
Weather by CustomWeather, © 2016

See weather overviewHow to use our weather pages